Wetbulb
69.23 70.06 69.94 65.84 58.83 58.10 56.12 56.91 61.45 60.00 61.63 65.81 66.97 65.62 65.14 66.99 64.90 61.40 76.19 77.05 76.82 76.24 76.99 77.45 77.86 77.32 76.89 76.39 76.14 76.04 75.73 75.52 75.42 75.88 76.52 76.77 76.67 76.46 76.34 76.08 75.95 75.52 75.64 75.65 75.61 75.88 75.54 75.35 75.57
65.62 64.43 65.82 62.40 56.18 53.66 54.56 58.62 58.94 61.39 63.20 65.67 66.85 67.14 66.64 65.47 70.84 72.43 73.96 77.25 77.80 76.81 77.54 77.22 77.68 77.20 76.69 76.60 76.40 76.04 75.81 75.53 75.20 74.97 74.94 75.33 75.59 75.62 75.53 75.55 75.47 75.42 75.52 75.73 75.82 75.85 75.61 75.59 75.74
65.47 64.54 61.42 58.41 56.34 54.51 54.47 60.52 60.76 62.11 64.01 64.22 63.33 68.12 69.06 67.05 71.29 71.85 74.46 76.96 77.70 77.49 77.34 78.00 77.86 77.56 76.84 76.62 76.42 76.52 76.12 75.84 75.60 75.19 74.56 74.12 74.00 74.14 74.44 75.05 75.25 75.40 75.40 75.40 75.42 75.29 75.27 75.58 75.83
63.70 64.10 63.01 56.27 54.64 58.39 58.43 59.65 62.72 62.42 63.54 64.64 62.48 64.22 69.96 72.82 71.18 73.95 76.45 75.02 76.71 76.30 76.18 77.55 78.26 78.01 77.20 76.74 76.42 76.32 76.17 76.04 75.71 75.34 74.88 74.62 74.10 73.58 73.51 73.71 74.40 74.90 75.04 75.48 75.75 75.71 76.27 76.10 76.15
62.58 61.96 57.54 55.18 55.28 58.10 60.39 62.41 62.62 61.63 62.50 60.25 60.78 63.14 67.22 71.59 75.17 74.95 73.27 74.90 76.13 76.21 75.48 76.08 78.01 77.83 77.12 76.45 76.44 76.27 76.19 75.97 75.96 75.80 75.64 75.13 74.89 74.75 74.90 74.85 74.61 74.42 74.84 75.40 75.86 76.64 76.62 76.80 76.62
58.55 60.72 55.22 53.47 54.88 57.14 59.18 62.63 63.71 62.28 60.87 58.75 60.06 63.50 68.77 73.27 74.79 74.61 75.34 75.04 75.99 75.79 75.65 75.65 76.50 77.05 77.25 76.40 76.09 75.89 75.59 75.52 75.46 75.26 75.10 74.92 75.03 75.26 75.61 75.69 75.72 75.67 75.46 75.05 75.41 76.07 76.37 76.84 76.54
57.52 57.34 54.03 55.05 54.51 55.67 56.89 61.40 62.03 60.91 60.27 58.20 58.64 61.90 69.36 72.27 74.73 74.90 74.43 75.11 76.01 76.43 76.51 76.43 75.86 75.59 74.66 74.27 74.19 74.22 74.37 74.29 74.13 73.23 72.20 72.51 74.35 75.15 75.56 76.07 76.32 76.22 76.44 76.36 76.29 75.99 75.72 75.59 75.94
59.48 57.51 54.60 56.27 55.68 54.93 59.67 60.45 63.04 58.98 57.83 59.99 59.42 60.58 64.72 71.53 74.22 73.65 72.47 72.90 74.30 74.70 74.40 72.73 72.43 71.22 70.15 67.57 72.79 72.58 72.40 72.42 72.49 72.66 72.09 71.98 73.78 74.52 75.80 75.17 75.09 76.12 76.22 76.36 76.41 76.36 76.01 75.76 75.49
60.55 54.59 52.92 53.44 53.68 55.19 59.49 58.82 62.49 62.74 58.11 58.62 59.10 63.74 69.99 72.10 71.12 69.27 68.35 69.07 70.72 70.30 69.88 68.92 67.30 66.71 66.58 66.10 69.15 72.11 72.61 71.97 72.68 71.81 72.28 70.85 68.78 69.02 68.68 71.50 72.66 72.25 73.47 74.09 74.55 74.87 75.60 75.82 75.90
57.30 54.86 54.58 56.95 56.86 56.24 57.99 59.36 60.39 57.95 56.16 57.23 60.00 66.97 68.81 68.97 68.55 65.90 64.89 65.24 66.10 65.80 66.46 67.10 68.02 65.72 65.83 65.63 67.76 67.89 67.69 68.13 68.74 68.93 69.64 68.43 69.73 69.92 68.98 70.83 72.37 73.29 73.57 73.83 73.92 74.59 74.96 75.64 75.47
56.23 54.01 55.99 55.21 56.52 57.46 57.37 58.79 58.90 57.10 55.31 57.61 57.99 63.03 65.95 66.42 66.66 63.76 63.82 64.71 65.04 65.55 66.19 66.52 68.24 69.49 67.79 66.67 67.02 66.57 66.81 67.24 67.16 68.23 69.27 69.86 68.74 68.72 67.53 66.96 67.20 68.64 70.30 67.49 69.06 69.86 72.60 75.78 75.53
52.88 54.84 55.54 54.85 55.38 56.64 56.09 58.22 55.31 56.24 56.17 57.64 59.77 63.18 65.02 64.58 63.99 63.54 63.88 64.68 64.99 65.51 66.19 67.11 68.20 68.20 68.85 67.15 66.55 66.63 66.17 66.09 65.69 66.41 68.30 68.93 66.55 67.36 67.61 66.35 66.77 68.54 66.90 68.28 67.76 67.40 70.26 70.22 70.49
54.08 54.21 54.65 55.02 55.13 55.66 55.92 54.46 54.61 55.04 57.30 57.37 62.35 63.59 64.04 63.85 64.38 65.14 65.97 66.14 66.02 65.92 66.68 67.31 68.56 68.52 68.22 67.83 67.09 66.60 66.10 64.93 66.06 65.93 67.43 67.15 66.30 66.76 66.85 66.86 66.63 66.59 66.20 66.55 67.26 67.22 68.41 67.70 68.53
55.17 54.69 54.01 54.75 54.74 54.64 53.40 53.80 54.49 56.21 57.55 56.20 60.85 61.66 63.30 64.10 64.58 65.15 65.82 65.34 65.91 66.73 67.15 67.65 68.04 69.10 68.66 67.96 67.48 65.81 65.97 65.74 65.10 65.44 66.24 67.10 66.03 66.24 65.54 65.87 65.44 65.74 66.30 66.68 66.55 67.08 67.59 67.08 67.87
54.65 51.97 53.05 53.68 53.98 53.08 54.66 51.66 52.43 57.21 56.71 55.33 58.25 61.62 62.73 64.33 65.17 65.11 65.95 65.36 66.42 66.82 67.36 67.18 67.31 67.93 68.05 67.60 66.71 65.16 65.13 64.47 64.04 64.09 65.69 65.40 65.65 66.09 65.51 64.01 63.98 64.53 65.93 67.68 66.73 68.08 67.08 66.41 66.86
52.04 52.61 49.43 53.53 53.64 53.48 53.33 49.24 54.65 57.14 56.57 55.61 57.46 60.54 62.55 63.88 64.43 65.71 65.77 66.13 67.03 67.22 67.09 67.08 66.57 66.90 66.45 66.54 65.75 64.77 64.75 64.61 64.05 64.05 64.26 64.69 64.55 64.58 64.40 62.80 62.88 64.06 63.79 63.25 63.04 63.90 64.40 64.73 65.73
51.31 47.76 48.76 51.31 54.28 53.02 52.09 50.74 56.07 57.60 57.14 56.31 57.73 59.71 61.56 63.20 64.33 65.32 65.85 66.48 67.15 67.57 67.25 66.45 66.65 65.21 65.45 66.11 65.84 66.76 68.20 64.48 63.86 63.82 63.81 64.98 64.53 64.07 64.13 62.88 62.55 65.40 62.50 62.25 61.97 62.39 63.49 63.09 64.68
48.48 48.74 49.57 49.35 52.66 52.16 51.18 50.74 56.41 57.03 56.91 56.63 56.76 58.97 60.64 62.25 63.13 64.89 65.69 66.48 66.94 67.39 67.11 65.94 64.87 65.18 65.34 64.51 66.74 63.56 63.13 63.21 63.63 63.29 63.58 64.40 64.21 63.83 64.72 62.70 64.41 63.71 61.13 61.38 62.07 63.68 62.40 62.54 63.44
50.58 49.81 48.91 51.18 53.25 52.31 51.76 52.46 54.29 56.84 57.26 55.88 56.62 58.07 60.36 61.92 63.94 65.23 65.71 66.03 66.46 65.88 64.71 64.16 63.77 64.97 63.89 62.33 61.48 61.31 60.83 62.43 62.06 63.03 65.48 64.27 63.85 64.04 64.53 61.81 62.05 62.74 61.39 62.78 63.59 61.96 62.21 60.16 62.83
49.87 48.93 49.48 51.96 52.62 51.98 52.14 52.03 54.36 56.31 56.13 56.92 57.54 58.73 60.37 61.95 63.15 64.19 65.19 65.19 63.59 63.87 63.12 63.20 63.49 64.28 63.95 62.77 62.59 61.84 61.50 61.35 61.42 61.72 65.39 64.66 64.14 63.08 62.62 63.05 61.25 61.99 60.23 62.43 63.05 61.77 58.93 59.96 60.98
50.00 49.47 49.58 49.17 52.00 52.96 51.25 49.93 52.27 55.92 56.90 57.58 59.09 60.70 61.70 61.78 62.14 63.42 64.02 63.81 62.38 61.94 61.12 62.23 63.24 63.99 63.84 64.00 62.58 63.08 62.57 61.64 59.35 59.87 60.40 61.59 62.10 62.07 62.48 62.30 61.45 61.91 60.88 58.74 59.83 59.45 59.29 56.95 59.30
48.69 51.80 50.19 49.23 49.08 45.76 52.20 45.27 50.75 54.95 55.48 56.48 58.11 59.90 60.63 61.53 62.73 63.65 63.23 62.05 60.35 60.76 60.80 62.24 63.08 63.43 63.23 63.55 62.27 62.32 59.00 58.03 58.84 58.64 59.16 60.39 61.55 61.33 61.07 62.30 61.15 60.75 59.39 58.99 58.49 58.75 57.70 57.95 55.69
49.70 52.19 51.03 50.55 49.42 49.13 49.10 46.96 49.77 54.36 52.94 54.86 57.48 59.28 60.54 61.92 62.28 62.01 61.34 60.19 60.67 60.10 60.73 61.72 62.43 62.28 62.29 62.06 61.49 59.08 59.44 57.84 57.99 58.52 60.76 61.20 60.83 61.49 58.21 59.73 59.66 59.57 58.13 58.87 58.50 57.05 59.18 58.09 56.66
52.95 50.82 51.08 51.45 50.06 44.69 48.33 47.74 47.58 51.26 52.38 54.88 57.61 58.79 60.03 60.52 60.83 60.28 60.15 60.15 59.86 60.61 60.68 61.46 61.23 60.86 60.98 60.36 59.99 60.56 59.21 58.93 56.88 57.55 56.60 56.92 56.58 56.83 57.15 57.52 57.74 57.77 57.34 57.46 57.41 58.00 57.43 58.68 58.14
51.98 49.79 44.54 43.17 43.26 41.56 49.07 46.27 47.91 52.57 53.96 53.74 56.41 57.99 59.35 59.64 59.38 59.19 58.50 58.65 59.35 59.56 60.06 60.14 59.90 59.22 59.63 59.17 58.63 58.32 59.29 58.98 58.84 56.93 54.40 55.10 54.74 54.64 55.91 57.41 56.89 56.55 57.39 57.25 58.13 58.31 57.92 57.89 57.32
51.31 50.13 44.48 38.60 40.56 43.31 48.46 44.39 48.79 53.87 54.78 55.91 57.16 57.76 58.64 58.62 58.88 58.41 58.33 58.50 59.13 59.65 59.18 59.49 58.83 58.41 58.63 58.29 57.73 57.86 58.10 55.85 55.12 55.66 55.07 54.03 53.29 53.37 56.28 56.35 55.51 56.41 56.68 56.57 57.16 58.49 56.32 57.85 56.60
49.99 47.94 52.25 46.84 47.17 44.00 46.57 48.96 52.18 53.45 53.22 53.88 54.42 56.19 56.79 57.32 57.61 57.82 58.53 58.94 58.47 58.41 58.64 58.33 57.86 58.17 58.11 57.28 57.70 58.09 57.01 55.81 55.51 55.01 54.76 53.84 54.08 52.98 53.94 54.94 55.16 55.30 55.27 55.27 55.68 53.42 53.99 55.90 55.16
51.58 52.84 46.42 47.77 40.18 38.80 44.10 45.26 45.61 49.86 51.12 52.84 53.22 53.89 55.03 56.53 57.11 57.81 57.27 58.19 58.87 58.85 57.99 59.81 58.72 57.70 57.37 56.80 56.05 56.08 55.44 54.68 55.13 54.07 53.05 53.19 53.62 53.07 52.63 53.41 53.85 52.47 53.67 53.40 52.82 53.36 54.20 52.81 52.49
50.35 49.12 49.25 48.62 45.90 40.22 39.06 44.30 51.14 50.49 51.30 51.53 52.66 54.20 55.06 55.46 56.11 56.69 56.13 56.47 57.18 57.96 56.38 57.56 57.85 57.00 56.03 55.93 56.03 55.01 53.98 54.15 54.17 52.66 51.63 53.87 51.52 52.01 51.24 51.96 51.36 50.31 50.71 51.10 50.56 51.46 52.14 51.47 51.36
51.41 49.82 49.95 44.09 42.78 46.15 44.66 44.00 52.76 51.72 52.04 52.67 52.82 53.57 54.70 55.42 55.73 55.68 55.98 56.48 56.58 56.36 55.97 56.63 57.11 55.38 55.33 54.64 53.91 53.45 53.64 53.55 52.67 50.72 52.19 52.44 51.10 51.25 50.87 50.50 49.17 48.53 48.67 49.34 49.10 49.63 50.36 49.77 48.67
MSLP
1010.84 1009.96 1008.77 1007.32 1005.84 1002.65 1001.59 1001.27 1000.07 1000.90 1001.63 1002.65 1003.47 1003.38 1004.55 1005.55 1006.05 1007.91 1009.34 1009.61 1009.72 1010.71 1012.01 1012.54 1013.30 1013.48 1013.63 1013.65 1013.69 1013.67 1013.67 1013.71 1013.77 1013.83 1013.90 1013.98 1014.11 1014.18 1014.24 1014.23 1014.23 1014.26 1014.30 1014.38 1014.45 1014.44 1014.48 1014.49 1014.44
1009.23 1008.27 1007.56 1005.56 1003.22 1000.72 1001.54 1000.95 1000.80 1001.16 1002.42 1003.03 1003.44 1003.61 1005.05 1006.78 1007.69 1008.30 1009.34 1009.85 1010.21 1010.82 1011.58 1012.51 1013.52 1013.64 1013.59 1013.76 1013.74 1013.87 1013.87 1013.93 1014.06 1014.08 1014.07 1014.04 1014.17 1014.30 1014.33 1014.36 1014.40 1014.35 1014.35 1014.38 1014.40 1014.43 1014.39 1014.40 1014.45
1009.86 1008.05 1006.41 1003.30 1001.23 1001.62 1002.12 1001.57 1001.62 1001.87 1002.70 1002.99 1003.47 1004.25 1005.56 1007.53 1008.35 1008.95 1009.96 1010.15 1010.48 1011.22 1012.30 1013.23 1013.65 1013.73 1013.67 1013.75 1013.79 1013.93 1014.03 1013.95 1013.97 1014.04 1014.15 1014.14 1014.14 1014.23 1014.37 1014.47 1014.45 1014.46 1014.40 1014.41 1014.37 1014.37 1014.42 1014.44 1014.36
1007.62 1006.59 1005.29 1002.37 1000.73 1001.66 1002.41 1004.68 1001.71 1001.98 1002.84 1003.36 1003.93 1005.56 1007.68 1008.42 1008.88 1009.59 1010.36 1010.43 1010.79 1011.44 1012.30 1013.64 1013.86 1013.97 1014.06 1014.03 1014.11 1014.19 1014.28 1014.33 1014.28 1014.26 1014.36 1014.38 1014.37 1014.45 1014.44 1014.50 1014.56 1014.52 1014.44 1014.34 1014.26 1014.15 1014.12 1014.19 1014.21
1007.05 1005.15 1002.93 1001.43 1001.22 1001.96 1001.91 1001.80 1001.79 1002.16 1002.64 1003.28 1004.06 1005.77 1008.05 1009.03 1009.33 1009.95 1010.62 1010.49 1010.23 1011.27 1012.36 1013.41 1014.12 1014.31 1014.44 1014.51 1014.47 1014.51 1014.63 1014.62 1014.65 1014.58 1014.58 1014.57 1014.50 1014.54 1014.52 1014.48 1014.45 1014.41 1014.33 1014.27 1014.18 1014.14 1014.07 1014.03 1013.94
1005.51 1003.79 1001.93 1000.94 1000.86 1001.39 1001.87 1002.28 1002.73 1003.90 1003.19 1003.83 1004.22 1005.93 1008.18 1009.19 1009.08 1009.47 1009.34 1009.46 1009.95 1010.97 1012.11 1013.35 1014.35 1014.57 1014.65 1014.78 1014.72 1014.72 1014.80 1014.76 1014.69 1014.75 1014.71 1014.55 1014.41 1014.35 1014.28 1014.32 1014.24 1014.13 1014.07 1013.99 1013.88 1013.82 1013.86 1013.78 1013.76
1004.98 1002.79 1001.44 1001.27 1001.66 1001.91 1002.57 1003.55 1003.90 1005.98 1004.27 1004.15 1004.92 1005.87 1008.32 1008.56 1009.03 1009.23 1009.59 1009.89 1010.20 1010.77 1011.59 1012.59 1013.49 1014.40 1014.71 1015.05 1015.20 1015.14 1015.04 1014.88 1014.80 1014.82 1014.71 1014.46 1014.24 1014.16 1013.96 1013.83 1013.79 1013.81 1013.91 1013.74 1013.60 1013.47 1013.34 1013.31 1013.28
1004.22 1002.84 1001.76 1001.95 1001.11 1002.66 1002.45 1003.23 1004.75 1009.46 1004.79 1005.45 1005.28 1005.37 1007.38 1009.20 1009.30 1009.50 1010.03 1010.49 1011.05 1011.50 1011.99 1012.72 1012.72 1013.04 1013.13 1014.55 1015.16 1014.97 1014.95 1014.89 1014.75 1014.64 1014.36 1014.06 1013.90 1013.79 1013.63 1013.45 1013.58 1013.59 1013.55 1013.44 1013.33 1013.16 1012.97 1012.78 1012.76
1004.71 1003.22 1001.44 1000.99 1001.08 1001.27 1003.05 1002.94 1003.66 1004.93 1005.14 1005.34 1006.05 1006.48 1007.99 1009.19 1009.36 1009.68 1010.03 1010.40 1011.04 1011.65 1012.05 1012.36 1012.75 1013.12 1013.22 1013.62 1014.74 1014.73 1014.68 1014.59 1014.48 1014.46 1014.43 1013.60 1013.66 1013.33 1013.23 1013.04 1013.13 1012.97 1012.87 1012.78 1012.57 1012.32 1012.23 1012.21 1012.20
1004.16 1002.96 1001.29 1001.26 1001.35 1001.54 1002.40 1002.53 1003.50 1004.57 1005.03 1005.68 1006.87 1007.73 1008.60 1009.00 1009.21 1009.15 1009.41 1010.13 1011.04 1011.89 1012.44 1013.11 1013.36 1013.03 1013.50 1013.54 1013.85 1013.91 1014.17 1014.30 1014.32 1014.46 1014.57 1014.00 1014.09 1013.55 1013.55 1013.00 1012.74 1012.49 1012.43 1012.16 1011.67 1011.41 1011.33 1011.52 1010.94
1003.84 1002.80 1001.81 1002.47 1002.87 1002.73 1002.30 1002.78 1003.52 1004.24 1004.84 1005.13 1005.99 1007.74 1008.52 1008.90 1008.96 1009.12 1009.55 1010.26 1011.50 1012.35 1013.13 1013.95 1014.55 1014.44 1013.64 1013.77 1013.81 1014.00 1014.02 1014.40 1014.27 1014.39 1014.70 1014.50 1014.22 1013.76 1013.43 1013.01 1012.51 1012.42 1011.77 1011.05 1010.71 1010.44 1010.21 1009.93 1009.19
1003.45 1003.17 1003.11 1003.31 1003.72 1003.18 1003.02 1003.46 1004.37 1004.77 1005.85 1006.15 1006.15 1007.55 1008.33 1008.73 1009.14 1009.64 1010.40 1011.32 1012.12 1013.01 1013.87 1014.48 1014.81 1014.86 1015.05 1014.46 1014.74 1014.75 1014.67 1014.75 1014.73 1014.69 1014.89 1014.86 1014.39 1014.10 1013.96 1013.35 1013.12 1012.42 1011.90 1011.51 1010.98 1010.38 1009.91 1009.49 1008.92
1003.68 1003.62 1004.08 1004.28 1004.21 1003.89 1003.95 1004.31 1004.84 1005.88 1006.98 1006.94 1007.32 1008.02 1008.43 1008.86 1009.68 1010.43 1011.39 1012.35 1013.21 1014.07 1014.71 1015.29 1015.57 1015.76 1015.83 1015.77 1015.79 1015.68 1015.59 1015.37 1015.41 1015.06 1015.26 1015.52 1015.25 1014.86 1014.55 1014.06 1013.51 1012.93 1012.23 1011.69 1011.48 1011.21 1010.76 1010.19 1009.36
1003.50 1003.97 1004.38 1004.59 1004.45 1004.92 1004.96 1004.90 1005.90 1006.62 1007.44 1007.42 1008.01 1008.17 1008.66 1009.38 1010.21 1011.48 1012.36 1012.99 1013.78 1014.73 1015.34 1015.71 1015.94 1016.36 1016.51 1016.52 1016.54 1015.95 1015.78 1015.53 1015.28 1015.36 1015.64 1015.59 1015.80 1015.31 1015.01 1014.38 1013.76 1013.17 1012.75 1012.61 1012.28 1011.45 1010.97 1010.37 1009.62
1004.26 1004.41 1004.61 1004.78 1004.99 1005.16 1005.40 1005.46 1006.31 1007.21 1007.54 1007.46 1007.95 1008.52 1009.08 1009.87 1010.76 1011.74 1012.55 1013.45 1014.33 1015.09 1015.82 1015.99 1016.23 1016.65 1016.86 1016.91 1016.48 1015.97 1015.74 1015.60 1015.27 1015.27 1015.31 1015.52 1015.83 1015.42 1015.33 1014.44 1013.79 1013.24 1013.48 1012.99 1012.11 1011.56 1010.96 1010.38 1009.65
1004.40 1004.35 1003.73 1003.99 1005.04 1005.46 1005.98 1004.87 1005.98 1007.46 1007.48 1007.50 1007.86 1008.48 1009.34 1009.92 1010.98 1011.91 1012.96 1013.88 1014.75 1015.31 1015.92 1016.35 1016.48 1016.82 1016.97 1016.98 1016.43 1016.07 1015.84 1015.59 1015.23 1015.14 1015.01 1015.35 1015.72 1015.34 1015.27 1014.78 1014.11 1013.92 1013.88 1012.97 1012.39 1011.88 1011.34 1010.94 1010.24
1004.24 1003.48 1003.46 1003.83 1004.90 1005.09 1006.08 1005.17 1006.83 1007.67 1007.66 1007.55 1007.81 1008.47 1009.33 1010.16 1011.46 1012.66 1013.53 1014.40 1015.14 1015.62 1015.96 1016.36 1016.62 1016.92 1016.88 1016.61 1016.30 1015.77 1015.66 1015.32 1015.25 1015.07 1014.90 1015.19 1015.40 1015.13 1015.18 1014.85 1014.29 1014.09 1013.57 1012.92 1012.63 1012.20 1012.00 1011.05 1010.39
1002.47 1002.63 1002.94 1003.20 1004.58 1005.41 1005.28 1005.53 1006.55 1007.58 1007.66 1007.45 1007.59 1008.21 1009.20 1010.45 1011.88 1013.06 1013.79 1014.77 1015.33 1015.68 1016.22 1016.65 1016.88 1017.23 1016.91 1016.47 1016.05 1015.80 1015.58 1015.41 1015.35 1015.07 1014.93 1015.23 1015.21 1015.13 1014.97 1014.78 1014.18 1014.05 1013.53 1012.92 1012.63 1012.67 1012.00 1011.46 1010.15
1003.42 1003.33 1003.05 1003.75 1005.42 1005.68 1005.08 1005.38 1006.09 1007.48 1007.63 1007.28 1007.37 1008.03 1009.10 1010.60 1011.79 1013.16 1014.01 1014.96 1015.34 1015.88 1016.33 1016.79 1017.03 1017.33 1017.08 1016.56 1016.48 1016.30 1016.07 1015.81 1015.53 1015.20 1015.11 1014.90 1014.87 1014.80 1014.76 1014.60 1014.26 1013.94 1013.61 1013.27 1013.07 1012.42 1011.53 1010.88 1010.26
1004.39 1003.99 1003.79 1004.70 1005.91 1006.43 1005.59 1005.99 1006.00 1007.52 1007.50 1007.54 1007.79 1008.30 1009.07 1010.58 1011.94 1013.17 1014.17 1014.96 1015.43 1015.86 1016.47 1016.84 1017.04 1017.24 1017.24 1017.10 1017.21 1016.96 1016.59 1016.21 1015.69 1015.03 1014.71 1014.79 1014.70 1014.59 1014.66 1014.63 1014.37 1014.12 1013.59 1013.08 1012.67 1012.11 1011.68 1010.93 1010.29
1004.48 1004.24 1004.19 1005.10 1006.02 1006.48 1005.97 1005.49 1005.32 1007.13 1007.96 1008.09 1008.47 1008.87 1009.55 1010.64 1012.02 1012.97 1013.99 1014.75 1015.16 1015.76 1016.37 1016.69 1017.02 1017.28 1017.43 1017.51 1017.18 1017.04 1016.87 1016.30 1015.57 1015.13 1015.13 1014.74 1014.85 1014.83 1014.68 1014.47 1014.24 1013.76 1013.52 1012.68 1012.58 1012.15 1011.82 1011.35 1010.44
1004.76 1004.96 1005.88 1006.08 1006.26 1005.49 1005.46 1004.72 1004.63 1006.00 1007.49 1008.10 1008.59 1009.23 1009.90 1010.96 1011.81 1012.69 1013.72 1014.68 1015.16 1015.70 1016.14 1016.70 1017.11 1017.40 1017.40 1017.73 1017.60 1017.46 1017.13 1016.31 1016.02 1015.70 1015.01 1014.99 1014.99 1014.73 1014.38 1013.99 1013.91 1013.60 1013.18 1012.95 1012.69 1012.32 1012.10 1011.60 1010.74
1005.91 1006.74 1006.58 1006.53 1006.30 1005.94 1005.11 1004.78 1004.27 1005.55 1006.64 1007.81 1008.64 1009.42 1010.05 1010.83 1011.75 1012.69 1013.68 1014.20 1015.11 1015.72 1016.08 1016.52 1016.95 1017.32 1017.57 1017.69 1017.83 1017.63 1017.14 1016.79 1016.18 1015.67 1015.21 1015.04 1014.62 1013.94 1014.24 1014.07 1013.75 1013.35 1013.06 1012.48 1012.37 1012.15 1011.66 1011.40 1010.74
1007.26 1007.25 1006.87 1006.64 1006.01 1005.11 1004.26 1004.11 1003.90 1004.44 1006.15 1006.96 1008.54 1009.64 1010.29 1011.34 1012.15 1012.94 1013.88 1014.77 1015.18 1015.47 1015.62 1016.11 1016.70 1017.00 1017.39 1017.70 1017.80 1017.67 1017.33 1016.92 1016.37 1015.84 1015.47 1014.64 1014.53 1014.39 1014.31 1013.84 1013.99 1013.61 1013.25 1012.63 1012.27 1011.88 1011.50 1011.04 1010.55
1007.59 1007.39 1006.30 1005.38 1005.20 1005.54 1005.47 1005.35 1004.84 1005.84 1006.86 1007.37 1007.94 1009.36 1010.39 1011.65 1012.54 1013.26 1013.77 1014.12 1014.40 1015.06 1015.44 1016.27 1016.39 1016.89 1017.38 1017.61 1017.55 1017.47 1017.29 1016.99 1016.21 1015.91 1015.74 1015.39 1014.96 1014.74 1014.17 1014.22 1013.83 1013.52 1012.99 1012.45 1011.97 1011.59 1011.04 1010.63 1010.34
1007.18 1007.62 1007.05 1006.25 1005.64 1005.20 1005.51 1005.10 1005.77 1007.09 1008.11 1008.35 1009.10 1009.34 1010.35 1011.47 1012.53 1012.97 1013.65 1014.22 1014.68 1014.92 1015.71 1016.15 1016.52 1016.92 1017.24 1017.25 1017.22 1017.14 1016.99 1016.44 1016.47 1016.21 1016.18 1016.09 1015.85 1015.34 1014.82 1014.39 1013.92 1013.21 1012.77 1012.15 1011.87 1011.43 1010.91 1010.30 1010.06
1007.71 1007.97 1007.97 1008.13 1007.97 1006.91 1005.73 1005.40 1006.77 1007.90 1009.06 1009.82 1010.32 1010.79 1011.10 1011.92 1012.64 1013.20 1013.79 1014.19 1014.61 1015.28 1015.69 1016.13 1016.39 1016.57 1016.53 1016.76 1016.80 1016.68 1016.50 1016.83 1016.69 1016.60 1016.55 1016.25 1015.81 1015.55 1014.94 1014.26 1013.71 1013.28 1012.78 1012.31 1012.01 1011.63 1011.05 1010.55 1010.11
1008.80 1008.81 1008.77 1008.29 1008.02 1007.34 1006.29 1006.50 1007.40 1008.66 1009.47 1010.20 1010.73 1011.26 1011.62 1011.98 1012.92 1013.05 1013.60 1014.12 1014.58 1015.63 1015.89 1015.55 1015.76 1015.86 1016.13 1016.35 1016.40 1016.22 1016.57 1016.81 1016.53 1016.62 1016.40 1016.18 1015.79 1015.33 1014.94 1014.22 1013.84 1013.60 1012.97 1012.68 1012.23 1011.72 1011.15 1010.93 1010.57
1008.75 1008.66 1009.25 1009.63 1010.05 1009.04 1008.47 1008.01 1009.84 1010.47 1011.11 1011.50 1011.62 1011.90 1012.74 1013.04 1013.20 1013.21 1013.73 1014.49 1014.86 1014.79 1015.01 1015.15 1015.41 1015.91 1015.81 1015.88 1016.28 1016.52 1016.68 1016.53 1016.66 1016.64 1016.52 1015.80 1015.87 1015.37 1014.88 1014.31 1014.04 1013.81 1013.38 1012.99 1012.52 1011.91 1011.37 1010.97 1010.62
1009.90 1009.90 1009.99 1010.26 1010.40 1009.90 1009.85 1009.96 1010.61 1011.49 1011.78 1012.30 1012.66 1012.77 1013.01 1013.49 1013.50 1013.51 1013.68 1013.90 1014.01 1014.32 1015.08 1015.52 1015.88 1016.05 1016.01 1016.45 1016.76 1016.74 1016.91 1016.94 1016.78 1016.75 1016.18 1015.90 1015.70 1015.32 1014.85 1014.45 1014.25 1013.89 1013.53 1013.09 1012.67 1012.09 1011.48 1011.14 1010.88
Wind_Speed
11 14 11 7 10 9 10 7 14 11 15 11 10 12 21 21 15 8 8 6 13 16 13 12 9 10 9 10 9 9 9 9 9 9 8 7 5 5 3 3 4 4 3 3 4 4 4 3 3
15 7 9 10 14 9 3 6 15 18 13 10 8 10 20 19 17 15 13 7 12 12 12 12 11 10 11 10 10 8 9 8 8 7 7 7 5 3 2 1 2 3 4 5 5 6 7 7 7
13 11 11 13 16 10 3 19 3 17 8 7 10 13 16 13 13 12 10 8 13 13 12 11 11 10 11 10 9 8 8 8 8 7 5 5 4 2 0 2 3 5 6 7 7 8 8 9 9
8 9 9 13 7 13 9 6 15 14 10 7 5 16 12 9 9 12 8 5 11 13 14 11 9 8 8 8 8 7 6 5 5 5 4 3 2 1 1 3 5 7 8 9 10 10 9 10 10
10 10 13 15 6 8 2 6 4 8 9 12 5 19 15 13 12 13 13 10 12 15 14 13 9 9 8 8 9 8 7 7 6 6 5 3 2 3 4 5 7 8 9 11 11 11 11 11 12
12 13 17 13 8 4 4 2 2 21 4 10 15 16 12 9 10 11 13 13 14 14 14 14 14 13 12 10 10 9 8 7 7 6 4 3 2 3 5 7 9 10 11 12 13 12 13 12 13
16 14 15 15 4 6 2 3 5 30 2 12 6 18 12 11 8 12 11 11 13 13 15 15 14 14 16 11 9 9 9 8 7 6 4 5 6 7 9 9 11 10 12 13 14 14 15 15 14
12 15 16 16 16 11 16 12 19 21 17 9 6 9 16 12 9 13 10 11 12 11 11 10 9 9 14 13 6 9 7 5 5 3 5 8 10 11 14 11 8 11 12 14 15 16 17 16 17
13 15 14 10 8 2 12 14 3 3 10 9 10 15 18 14 11 9 10 11 12 10 11 11 10 9 9 12 9 11 10 7 4 4 11 10 11 10 14 8 4 11 11 14 16 18 18 18 18
13 14 17 11 3 2 9 12 11 5 7 10 14 16 16 13 11 11 12 12 13 12 13 12 11 10 9 8 7 8 8 8 8 10 11 10 10 8 11 11 8 12 13 14 20 21 20 16 12
14 17 12 4 5 12 6 7 7 7 9 10 16 14 15 12 8 7 10 13 13 12 11 13 11 11 11 9 8 6 6 7 7 11 10 10 9 9 9 9 9 10 11 10 12 10 11 16 13
14 6 8 5 3 12 10 5 5 5 12 7 11 15 12 11 9 7 11 12 12 13 13 12 12 11 12 10 9 9 8 8 8 9 11 9 8 9 10 9 12 9 10 11 11 10 13 16 18
15 6 4 3 5 5 3 3 6 4 5 2 8 8 11 9 7 9 11 11 11 12 11 12 12 12 11 11 8 7 7 7 7 8 9 9 10 9 11 10 11 11 11 11 12 13 12 15 17
2 6 6 8 6 5 8 6 5 8 3 5 9 10 7 8 9 11 10 10 12 10 10 10 12 10 9 7 7 6 6 7 6 7 7 7 8 8 10 10 10 10 11 12 12 12 12 13 15
6 8 7 8 8 5 12 9 12 5 2 8 11 9 8 10 11 11 10 11 11 10 8 7 8 8 7 8 7 7 7 9 7 7 8 7 9 9 10 10 10 10 11 13 12 12 11 13 12
10 14 14 17 9 7 11 17 13 5 6 9 12 10 9 11 11 10 10 10 9 9 8 7 7 7 6 6 5 6 6 7 7 8 7 8 9 9 9 10 10 10 11 12 12 11 10 12 13
12 12 17 13 8 10 14 9 10 4 6 9 11 11 11 11 7 9 10 9 8 7 7 7 6 9 8 7 7 7 8 8 9 9 8 10 11 12 9 10 11 9 11 10 10 11 13 13 11
9 16 16 6 10 10 14 16 12 3 8 11 12 14 12 12 11 10 9 8 7 7 7 6 6 8 8 7 7 8 9 10 10 10 10 13 10 14 10 12 11 10 12 12 11 13 12 13 13
11 11 8 8 6 9 8 9 2 3 9 11 10 12 14 11 12 11 8 7 7 6 5 5 6 8 8 8 10 9 10 10 11 11 12 12 12 14 11 12 14 13 13 12 13 13 14 12 13
12 11 11 8 2 8 12 13 8 7 8 7 8 10 12 14 12 12 9 6 4 5 5 5 7 9 9 8 8 8 9 11 12 12 11 13 15 14 13 14 13 15 14 14 13 12 11 13 12
12 11 4 6 7 11 16 16 17 10 8 7 7 9 11 12 12 12 10 6 3 5 4 5 7 9 9 11 9 9 10 11 12 13 13 12 15 16 16 15 15 13 12 13 14 13 12 10 13
13 8 6 8 11 12 4 13 5 14 12 9 10 10 11 12 14 10 9 6 3 2 2 5 7 8 9 10 10 12 12 13 13 14 13 13 15 16 17 14 15 16 14 11 12 10 11 11 13
10 6 8 12 13 16 19 11 11 12 11 10 9 10 11 11 7 8 8 3 1 3 4 4 6 7 9 10 12 12 14 14 14 14 16 15 16 12 17 16 17 14 12 14 13 13 13 10 12
10 11 14 16 16 15 20 15 7 12 6 11 11 10 10 8 8 4 3 0 7 6 5 6 7 8 11 12 14 14 15 16 14 15 14 13 13 12 11 14 13 14 13 14 12 12 13 11 12
10 13 13 12 12 9 7 6 5 7 6 9 10 11 10 7 7 7 8 10 6 7 6 8 9 11 13 14 15 16 16 16 17 15 15 14 12 12 13 15 13 11 12 12 11 11 11 10 8
7 8 10 15 11 14 6 9 8 11 8 9 9 5 11 9 7 8 7 7 10 10 7 10 11 11 13 15 17 16 16 13 12 12 12 11 10 10 14 13 13 14 15 11 10 9 9 9 8
3 9 8 10 15 15 14 5 12 10 9 5 5 8 6 4 6 7 8 9 8 8 9 9 10 12 14 17 15 15 14 14 12 12 11 8 10 10 12 14 12 14 12 10 10 6 9 10 9
11 10 9 8 11 13 12 14 12 8 7 6 5 4 3 5 7 8 9 8 8 5 9 9 9 10 15 18 17 16 16 13 13 11 13 12 12 11 12 13 12 10 9 10 8 8 7 9 7
5 9 5 2 7 12 11 3 8 8 8 9 9 10 10 8 12 11 11 10 11 14 11 10 8 12 15 17 18 17 16 14 11 11 9 11 10 11 9 11 10 9 9 9 8 9 8 9 9
8 13 12 9 10 10 8 11 10 6 8 8 10 9 6 9 11 14 14 15 15 16 15 14 12 14 16 19 18 17 12 10 12 9 11 11 11 11 11 10 9 9 8 7 8 10 10 8 9
Wind_Direction
242 221 234 246 243 223 170 156 105 132 84 74 66 37 56 36 24 69 118 104 86 98 123 113 109 110 107 105 96 89 86 87 88 88 89 90 94 103 118 142 164 187 204 228 243 244 252 263 262
272 256 241 270 249 253 23 185 97 76 82 96 81 109 79 73 85 118 104 97 106 109 108 111 121 122 121 115 108 103 100 94 88 91 96 99 94 91 105 148 217 221 236 249 255 259 257 260 271
254 244 275 232 246 87 246 103 223 103 106 83 109 31 46 93 57 76 82 115 109 95 100 111 127 131 127 125 122 119 117 120 121 112 102 103 105 111 60 279 262 258 257 260 259 260 263 266 264
241 211 241 259 224 143 185 261 96 115 111 43 81 99 85 17 82 86 84 79 117 113 103 120 126 119 114 111 112 108 103 102 104 102 91 93 89 3 265 266 274 272 271 266 263 257 254 256 261
238 264 245 238 157 228 132 83 131 131 123 94 42 76 92 87 102 93 121 162 127 108 126 110 91 89 86 85 83 78 72 63 56 50 43 31 7 305 291 282 273 272 271 272 272 269 262 255 248
245 249 261 229 200 125 82 40 252 356 63 106 108 90 83 122 113 124 136 126 120 113 112 114 94 81 79 82 82 83 82 78 71 57 33 3 302 275 268 266 265 264 262 263 264 265 270 264 254
252 246 262 327 79 185 47 299 137 213 81 74 64 72 112 120 99 106 91 73 82 97 137 130 116 109 91 75 81 78 76 78 76 62 13 305 270 257 247 248 251 260 267 264 259 257 254 257 256
274 278 271 199 190 241 168 195 94 324 52 90 353 114 130 115 121 107 102 100 98 106 91 111 115 117 120 98 119 114 104 98 101 85 347 288 264 236 238 237 235 255 260 263 263 261 257 251 251
243 270 257 229 241 200 146 211 93 91 123 70 54 66 106 137 136 115 127 119 110 96 78 81 106 96 75 98 127 151 155 147 76 41 5 348 9 340 352 341 290 268 256 259 259 256 253 250 251
238 242 271 9 23 23 163 214 148 197 104 128 100 109 123 145 159 162 151 123 108 103 90 72 33 89 85 80 64 71 45 33 38 25 4 1 348 356 317 322 283 254 255 254 249 243 242 243 254
224 259 293 33 321 281 165 203 130 217 181 139 148 139 146 160 180 121 110 100 100 96 98 95 75 39 23 62 26 30 44 13 3 20 13 0 338 2 344 324 337 331 305 308 325 299 235 235 243
262 276 333 77 185 259 158 188 191 44 45 59 101 139 146 173 138 123 113 112 110 97 90 79 55 55 43 25 28 8 10 5 359 4 16 352 349 348 345 339 331 318 325 323 309 314 324 312 297
248 143 264 182 202 244 63 160 139 148 55 155 93 139 161 160 150 114 95 102 107 94 86 73 56 47 33 35 14 5 11 5 338 354 21 351 347 349 334 336 318 327 325 325 332 324 313 306 302
189 151 182 193 181 207 224 191 153 118 243 157 173 175 160 147 152 122 137 131 108 102 82 69 61 53 40 24 357 339 40 337 355 350 4 343 349 349 328 315 332 325 332 338 313 310 311 307 302
205 198 192 212 191 172 257 179 225 77 239 218 192 174 177 175 141 159 140 136 119 104 89 92 89 51 20 16 357 347 25 335 352 351 350 14 345 329 329 327 316 329 344 310 320 319 320 307 301
225 239 207 182 196 156 250 232 140 181 200 217 197 186 189 172 178 129 142 119 126 104 99 78 47 47 10 30 350 342 22 325 347 340 338 29 332 339 331 326 327 354 320 316 322 318 312 309 315
212 245 224 149 199 220 207 221 132 190 220 238 196 196 195 158 142 152 142 137 124 114 88 66 52 30 8 20 350 342 347 341 343 329 334 5 327 331 334 321 321 339 307 309 314 321 321 310 297
250 195 250 232 152 237 214 243 137 196 250 231 231 196 196 160 175 166 158 131 136 116 89 60 36 30 1 357 347 353 337 343 335 332 335 325 326 329 331 317 314 324 314 311 327 311 306 302 298
325 292 271 161 84 282 254 286 138 250 249 251 224 209 196 182 169 165 154 169 136 92 76 50 48 31 6 4 354 345 343 334 329 322 315 319 321 312 321 317 324 319 307 321 302 301 301 304 301
258 258 253 85 171 255 260 239 188 228 249 265 224 219 181 186 162 181 168 175 137 109 53 53 34 26 8 360 343 337 328 325 319 307 325 335 314 326 319 320 316 309 308 299 295 287 301 296 302
237 266 273 274 157 250 261 256 231 189 226 214 215 206 193 181 193 178 186 186 186 88 51 42 19 12 360 2 331 337 327 317 316 326 321 309 332 320 311 313 296 300 304 299 322 310 318 308 307
292 186 313 286 257 272 157 282 216 171 202 200 196 197 187 192 198 177 187 195 144 34 39 20 9 1 358 346 335 331 309 312 325 300 311 319 310 308 291 310 323 310 303 308 293 302 300 298 295
307 330 294 288 277 278 266 236 288 149 198 183 186 195 197 190 178 188 202 140 153 247 343 307 358 344 340 338 334 324 316 317 310 312 309 319 289 312 321 316 303 305 304 301 305 293 292 288 286
319 280 263 250 251 248 250 249 230 174 218 176 178 200 194 180 198 204 169 194 258 255 289 334 329 346 339 337 327 322 318 317 313 310 307 306 326 315 295 309 321 314 311 304 304 290 288 279 285
243 261 264 271 230 275 344 259 300 49 114 329 162 191 180 199 212 219 221 231 238 280 308 324 333 331 339 332 328 328 321 316 297 332 315 313 318 299 335 323 315 309 304 299 296 300 290 285 300
300 345 298 306 315 317 166 246 99 57 57 32 12 227 184 179 253 237 291 311 302 313 342 313 329 339 326 330 330 326 320 315 328 318 324 324 322 323 317 316 311 317 312 321 312 307 304 296 292
300 251 10 307 278 261 264 131 123 97 82 75 39 355 5 316 254 286 297 293 309 323 302 315 317 309 327 332 326 322 324 337 316 331 327 321 322 323 322 310 322 322 313 330 327 318 313 323 320
268 347 300 261 290 285 307 326 56 83 62 120 205 222 297 314 308 278 267 301 325 325 293 291 302 317 344 327 327 326 341 316 326 331 327 320 331 318 315 327 327 326 324 336 330 317 322 321 315
211 245 236 298 284 299 298 58 57 56 29 356 333 12 345 335 326 321 352 336 314 315 322 286 329 341 325 334 336 334 324 313 339 329 308 316 315 322 324 321 339 339 340 341 329 310 315 318 316
280 288 304 286 285 277 314 276 77 52 19 5 337 348 342 322 310 320 314 306 303 341 360 335 338 345 351 332 331 320 341 344 340 320 316 330 325 319 333 342 335 328 321 313 301 324 319 323 324